#timestamp,LO_Frequency,Hit,StdDev 
1526716815.8,286047002.3,N
1526716835.6,286047002.5,N
1526716855.5,286046999.7,N
1526716875.3,286047001.5,N
1526716895.2,286046999.7,N
1526716915.9,286047002.1,N
1526716935.7,286047001.9,N
1526716955.6,286047001.8,N
1526716975.4,286047004.2,Y
1526716995.3,286047003.4,P
1526717015.1,286047004.2,P
1526717016.0,286047004.2,P
1526717035.8,286047004.0,Y
1526717055.7,286047000.4,P
1526717075.5,286046999.0,N
1526717095.4,286046999.5,N
1526717115.2,286046997.4,N
1526717135.0,286046997.3,N
1526717135.9,286046997.3,N
1526717155.8,286046997.7,N
1526717175.6,286046995.1,N
1526717195.4,286046997.3,N
1526717215.3,286046999.4,N
1526717235.1,286046999.5,N
1526717255.9,286046999.1,N
1526717275.7,286046998.1,N
1526717295.5,286047000.8,N
1526717315.4,286046999.6,N
1526717335.2,286046997.0,N
1526717355.1,286046996.7,N
1526717356.0,286046996.7,N
1526717375.8,286046995.3,N
1526717395.6,286046994.9,N
1526717415.5,286046997.5,N
1526717435.3,286046997.1,N
1526717455.1,286046995.0,N
1526717475.9,286046997.1,N
1526717495.7,286046997.6,N
1526717515.6,286046998.0,N
1526717535.4,286046995.9,N
1526717555.2,286046995.7,N
1526717575.1,286046997.4,N
1526717576.0,286046997.4,N
1526717595.8,286046996.8,N
1526717615.7,286046999.6,N
1526717635.5,286047001.1,N
1526717655.3,286046998.3,N
1526717675.2,286046999.6,N
1526717695.0,286046996.6,N
1526717695.9,286046996.6,N
1526717715.8,286046999.1,N
1526717735.6,286046998.8,N
1526717755.4,286047002.2,N
1526717775.3,286047002.8,N
1526717795.1,286047000.9,N
1526717815.9,286046996.5,N
1526717835.7,286046997.0,N
1526717855.5,286046996.5,N
1526717875.4,286046997.8,N
1526717895.2,286046996.6,N
1526717915.0,286046997.5,N
1526717915.9,286046997.5,N
1526717935.8,286046996.9,N
1526717955.6,286046999.6,N
1526717975.5,286046997.7,N
1526717995.3,286046996.5,N
1526718015.1,286046999.6,N
1526718035.9,286046996.9,N
1526718055.7,286046996.6,N
1526718075.6,286046996.9,N
1526718095.4,286046996.6,N
1526718115.2,286046996.8,N
1526718135.1,286046999.0,N
1526718136.0,286046999.0,N
1526718155.8,286046998.5,N
1526718175.6,286046999.4,N
1526718195.5,286046999.3,N
1526718215.3,286046996.7,N
1526718235.2,286046995.5,N
1526718255.9,286046995.2,N
1526718275.7,286046998.8,N
1526718295.6,286046999.5,N
1526718315.4,286046999.3,N
1526718335.3,286046996.6,N
1526718355.1,286046998.8,N
1526718356.0,286046998.8,N
1526718375.8,286047000.8,N
1526718395.7,286047000.9,N
1526718415.5,286046998.3,N
1526718435.3,286047000.6,N
1526718455.2,286046998.3,N
1526718475.0,286046999.0,N
1526718475.9,286046999.0,N
1526718495.8,286046999.5,N
1526718515.6,286046996.6,N
1526718535.4,286046999.1,N
1526718555.3,286046999.4,N
1526718575.1,286046997.4,N
1526718595.9,286046996.8,N
1526718615.7,286046996.9,N
1526718635.5,286046997.0,N
1526718655.4,286046997.0,N
1526718675.2,286046997.6,N
1526718695.0,286046997.2,N
1526718696.0,286046997.2,N
1526718715.8,286046997.8,N
1526718735.6,286046997.8,N
1526718755.5,286046995.0,Y
1526718775.3,286046999.4,P
1526718795.1,286046998.7,N
1526718815.9,286046998.8,N
1526718835.7,286046998.7,N
1526718855.6,286046999.3,N
1526718875.4,286046997.2,Y
1526718895.2,286047000.5,P
1526718915.1,286047000.0,N
1526718916.0,286047000.0,N
1526718935.8,286047000.7,N
1526718955.7,286047001.1,N
1526718975.5,286046998.8,N
1526718995.3,286046999.4,N
1526719015.2,286046999.1,N
1526719035.0,286046999.4,N
1526719035.9,286046999.4,N
1526719055.8,286046997.0,Y
1526719075.6,286046997.0,P
1526719095.4,286046999.1,N
1526719115.3,286046998.2,N
1526719135.1,286047000.4,N
1526719155.8,286047000.5,N
1526719175.7,286047002.4,N
1526719195.5,286046999.9,N
1526719215.4,286047000.1,N
1526719235.2,286046999.7,N
1526719255.0,286047002.8,N
1526719255.9,286047002.8,N
1526719275.8,286046999.7,N
1526719295.6,286047001.8,N
1526719315.4,286047003.8,N
1526719335.3,286047002.9,N
1526719355.1,286047001.8,N
1526719375.9,286047001.7,N
1526719395.7,286047003.5,N
1526719415.5,286047004.4,N
1526719435.4,286047001.7,N
1526719455.2,286047001.0,N
1526719475.1,286047000.3,N
1526719476.0,286047000.3,N
1526719495.8,286047001.1,N
1526719515.6,286047001.2,N
1526719535.5,286047000.2,N
1526719555.3,286047000.1,N
1526719575.1,286047001.0,N
1526719595.9,286047001.1,N
1526719615.7,286047002.5,N
1526719635.6,286047002.5,N
1526719655.4,286047001.9,N
1526719675.2,286047004.0,N
1526719695.1,286047001.5,N
1526719696.0,286047001.5,N
1526719715.8,286047003.0,N
1526719735.6,286047002.1,N
1526719755.5,286047002.2,N
1526719775.3,286047001.7,N
1526719795.2,286047001.6,N
1526719815.9,286047001.8,N
1526719835.7,286047002.6,N
1526719855.6,286047002.7,N
1526719875.4,286047002.5,N
1526719895.3,286047001.8,N
1526719915.1,286047003.9,Y
1526719916.0,286047003.9,P
1526719935.8,286047001.5,N
1526719955.7,286047001.5,N
1526719975.5,286047003.9,Y
1526719995.4,286047000.7,P
1526720015.2,286047000.3,N
1526720035.0,286047000.0,N
1526720035.9,286047000.0,N
1526720055.8,286047000.4,N
1526720075.6,286046999.7,N
1526720095.5,286046998.5,N
1526720115.3,286046997.1,Y
1526720135.1,286046996.6,P
1526720155.9,286046996.5,N
1526720175.7,286046998.0,N
1526720195.5,286046995.6,N
1526720215.4,286046995.6,N
1526720235.2,286046993.3,Y
1526720255.1,286046997.3,P
1526720256.0,286046997.3,P
1526720275.8,286046998.3,P
1526720295.6,286046998.4,Y
1526720315.5,286047001.5,P
1526720335.3,286047004.2,N
1526720355.2,286047003.3,N
1526720375.9,286047003.3,N
1526720395.7,286047004.2,N
